Other Surface Observations
Issued by NWS Upton, NY

Home | Current Version | Previous Version | Text Only | Print | Product List | Glossary On
Versions: 1 2 3 4 5 6 7 8 9 10 11 12 13 14 15 16 17 18 19 20 21 22 23 24 25 26 27 28 29 30 31 32 33 34 35 36 37 38 39 40 41 42 43 44 45 46 47 48 49 50
745
SXUS51 KOKX 210757
OSOOKX
NEW YORK CITY METROPOLITAN AREA WEATHER ROUNDUP
National Weather Service New York NY
300 AM EST SAT JAN 21 2017

CITY           SKY/WX    TMP DP  RH WIND       PRES   REMARKS
Central Park   CLOUDY    42  40  92 W7        29.92F FOG
LaGuardia APRT CLOUDY    45  40  82 SW8       29.91F FOG
Kennedy INTL   CLOUDY    43  43 100 SW3       29.92F FOG
Newark Liberty CLOUDY    42  41  96 SW5       29.91F FOG
Teterboro APRT CLOUDY    42  41  96 S5        29.90F FOG
Wall St Helipt CLOUDY    43  39  87 W7        29.93S

>>>>>>>>>>>>>>>>>>>>>>>>>>>>>>>>> KEY <<<<<<<<<<<<<<<<<<<<<<<<<<<<<<<
> SKY/WX - SKY CONDITION/PRESENT    : R : WCI - WIND CHILL INDEX    <
>          WEATHER (NA for Heliport): E : VSB - VISIBILITY IN MILES <
> TMP    - TEMPERATURE IN DEG F     : M : HX  - HEAT INDEX          <
> DP     - DEW POINT TEMPERATURE    : A : TC  - TEMPERATURE IN      <
> RH     - RELATIVE HUMIDITY        : R :       CELSIUS             <
> WIND   - DIRECTION/SPEED (MPH)    : K : VRB - VARIABLE WIND  DIR  <
> PRES   - PRESSURE (IN HG)         : S :                           <
>>>>>>>>>>>>>>>>>>>>>>>>>>>>>>>>> KEY <<<<<<<<<<<<<<<<<<<<<<<<<<<<<<<




USA.gov is the U.S. government's official web portal to all federal, state and local government web resources and services.